EW1168 Weather Reports


time (UTC)temp
F
wind
direction
speed
knots
gust
knots
rain 1hr
in
rain 24hr
in
rain mn
in
humidity
%
barometer
mb
20260507182441 55 344 2.6 6.1 0.00 0.00 0.00 78 1015.2
20260507181438 55 349 2.6 5.2 0.00 0.00 0.00 78 1015.2
20260507180439 55 29 3.5 6.1 0.00 0.00 0.00 77 1015.2
20260507175438 55 27 2.6 5.2 0.00 0.00 0.00 77 1015.2
20260507174438 55 30 3.5 7.0 0.00 0.00 0.00 76 1015.2
20260507173438 55 318 2.6 6.1 0.00 0.00 0.00 76 1015.3
20260507172933 55 333 2.6 7.0 0.00 0.00 0.00 76 1015.3
20260507171439 55 18 3.5 7.0 0.00 0.00 0.00 76 1015.3
20260507170443 55 344 3.5 7.8 0.00 0.00 0.00 75 1015.3
20260507165438 55 13 4.3 7.0 0.00 0.00 0.00 75 1015.3
20260507164922 55 307 3.5 7.0 0.00 0.00 0.00 75 1015.4
20260507163438 55 46 3.5 7.8 0.00 0.00 0.00 74 1015.4
20260507162438 55 65 3.5 7.0 0.00 0.00 0.00 74 1015.4
20260507161438 55 340 4.3 9.6 0.00 0.00 0.00 74 1015.4
20260507160438 55 335 4.3 8.7 0.00 0.00 0.00 74 1015.4
20260507155443 55 350 4.3 8.7 0.00 0.00 0.00 73 1015.3
20260507154438 56 35 3.5 7.8 0.00 0.00 0.00 74 1015.3
20260507153921 55 61 4.3 10.4 0.00 0.00 0.00 74 1015.3
20260507152437 56 337 4.3 9.6 0.00 0.00 0.00 74 1015.3
20260507151921 56 54 6.1 10.4 0.00 0.00 0.00 74 1015.2
20260507150438 56 10 6.1 11.3 0.00 0.00 0.00 73 1015.2
20260507145910 56 286 5.2 10.4 0.00 0.00 0.00 72 1015.3
20260507144438 56 340 7.0 12.2 0.00 0.00 0.00 72 1015.2
20260507143437 56 307 6.1 11.3 0.00 0.00 0.00 72 1015.2
20260507142438 56 338 6.1 11.3 0.00 0.00 0.00 70 1015.2
20260507141448 57 41 6.1 11.3 0.00 0.00 0.00 70 1015.2
20260507140920 58 351 7.0 13.0 0.00 0.00 0.00 69 1015.2
20260507135438 58 304 6.1 12.2 0.00 0.00 0.00 70 1015.3
20260507134438 58 0 7.0 11.3 0.00 0.00 0.00 71 1015.3
20260507133437 57 324 6.1 13.0 0.00 0.00 0.00 69 1015.4
20260507132438 57 341 7.8 12.2 0.00 0.00 0.00 71 1015.5
20260507131438 57 317 7.0 11.3 0.00 0.00 0.00 70 1015.4
20260507130437 56 335 7.8 13.0 0.00 0.00 0.00 70 1015.5
20260507125438 57 348 7.0 13.0 0.00 0.00 0.00 69 1015.4
20260507124442 57 350 7.0 11.3 0.00 0.00 0.00 70 1015.4
20260507123912 57 15 7.0 12.2 0.00 0.00 0.00 69 1015.3
20260507122436 57 316 6.1 13.0 0.00 0.00 0.00 69 1015.3
20260507121436 57 5 6.1 11.3 0.00 0.00 0.00 68 1015.3
20260507120436 57 42 7.0 12.2 0.00 0.00 0.00 70 1015.3
20260507115436 57 311 6.1 13.0 0.00 0.00 0.00 68 1015.3
20260507114443 57 355 6.1 11.3 0.00 0.00 0.00 68 1015.3
20260507113445 58 334 5.2 10.4 0.00 0.00 0.00 69 1015.3
20260507112435 57 355 5.2 9.6 0.00 0.00 0.00 69 1015.3
20260507111436 57 46 6.1 9.6 0.00 0.00 0.00 69 1015.4
20260507110436 57 331 6.1 10.4 0.00 0.00 0.00 68 1015.5
20260507105435 57 342 5.2 10.4 0.00 0.00 0.00 70 1015.5
20260507104435 56 19 6.1 10.4 0.00 0.00 0.00 70 1015.5
20260507103436 56 315 5.2 10.4 0.00 0.00 0.00 68 1015.5
20260507102436 56 346 6.1 9.6 0.00 0.00 0.00 69 1015.5
20260507101435 56 331 6.1 10.4 0.00 0.00 0.00 69 1015.5
20260507100435 56 303 5.2 9.6 0.00 0.00 0.00 69 1015.4
20260507095435 56 311 5.2 10.4 0.00 0.00 0.00 71 1015.3
20260507094435 56 0 4.3 7.8 0.00 0.00 0.00 70 1015.3
20260507093917 56 350 4.3 7.0 0.00 0.00 0.00 70 1015.2
20260507092440 56 340 4.3 8.7 0.00 0.00 0.00 69 1015.1
20260507091435 55 347 5.2 7.8 0.00 0.00 0.00 70 1015.0
20260507090440 56 339 4.3 7.8 0.00 0.00 0.00 69 1015.0
20260507085435 56 341 4.3 7.8 0.00 0.00 0.00 67 1014.9
20260507084435 55 51 5.2 8.7 0.00 0.00 0.00 66 1014.9
20260507083435 55 340 5.2 8.7 0.00 0.00 0.00 72 1014.9
20260507082911 56 334 3.5 8.7 0.00 0.00 0.00 70 1014.9
20260507081435 56 322 2.6 6.1 0.00 0.00 0.00 69 1014.9
20260507080435 56 56 2.6 6.1 0.00 0.00 0.00 69 1014.8
20260507075433 56 348 1.7 6.1 0.00 0.00 0.00 69 1014.7
20260507074908 55 60 2.6 6.1 0.00 0.00 0.00 72 1014.7
20260507073432 55 349 1.7 6.1 0.00 0.00 0.00 71 1014.7
20260507072438 55 67 1.7 7.0 0.00 0.00 0.00 73 1014.6
20260507071433 55 65 2.6 6.1 0.00 0.00 0.00 75 1014.6
20260507070433 55 45 1.7 3.5 0.00 0.00 0.00 76 1014.5
20260507065502 54 61 1.7 3.5 0.00 0.00 0.00 77 1014.5
20260507063433 52 0 1.7 5.2 0.00 0.00 0.00 81 1014.4
20260507062916 52 36 1.7 4.3 0.00 0.00 0.00 81 1014.4
20260507061433 52 46 1.7 5.2 0.00 0.00 0.00 82 1014.4
20260507060437 51 59 0.9 4.3 0.00 0.00 0.00 84 1014.3
20260507055433 51 53 1.7 4.3 0.00 0.00 0.00 85 1014.3
20260507054431 51 52 0.9 4.3 0.00 0.00 0.00 86 1014.2
20260507053435 50 65 1.7 4.3 0.00 0.00 0.00 87 1014.1
20260507052431 49 49 1.7 5.2 0.00 0.00 0.00 88 1014.1
20260507051912 49 51 0.9 3.5 0.00 0.00 0.00 88 1014.0
20260507050427 48 46 0.9 3.5 0.00 0.00 0.00 88 1013.9
20260507045426 48 44 0.9 3.5 0.00 0.00 0.00 87 1013.8
20260507044425 48 42 0.9 4.3 0.00 0.00 0.00 87 1013.6
20260507043430 48 57 0.9 2.6 0.00 0.00 0.00 87 1013.6
20260507042424 48 69 0.9 2.6 0.00 0.00 0.00 87 1013.5
20260507041424 48 69 0.9 5.2 0.00 0.00 0.00 87 1013.4
20260507040425 48 54 0.9 4.3 0.00 0.00 0.00 87 1013.4
20260507035422 49 51 0.9 2.6 0.00 0.00 0.00 86 1013.3
20260507034422 49 53 0.9 4.3 0.00 0.00 0.00 86 1013.3
20260507033422 49 40 0.9 4.3 0.00 0.00 0.00 86 1013.2
20260507032901 49 57 0.9 3.5 0.00 0.00 0.00 85 1013.0
20260507031423 49 13 0.9 3.5 0.00 0.00 0.00 85 1012.9
20260507030420 49 34 0.9 5.2 0.00 0.00 0.00 85 1012.8
20260507025421 49 32 0.9 2.6 0.00 0.00 0.00 84 1012.8
20260507024423 49 36 0.9 5.2 0.00 0.00 0.00 84 1012.9
20260507023418 50 29 0.9 3.5 0.00 0.00 0.00 83 1012.8
20260507022416 50 57 0.9 3.5 0.00 0.00 0.00 82 1012.8
20260507021426 50 57 0.9 4.3 0.00 0.00 0.00 81 1012.7
20260507020424 50 63 1.7 5.2 0.00 0.00 0.00 81 1012.6
20260507015415 50 336 1.7 6.1 0.00 0.00 0.00 80 1012.5
20260507014414 51 60 0.9 3.5 0.00 0.00 0.00 79 1012.5
20260507013438 51 80 0.9 4.3 0.00 0.00 0.00 78 1012.6
20260507011423 51 70 1.7 4.3 0.00 0.00 0.00 76 1012.5
20260507010418 52 51 1.7 7.8 0.00 0.00 0.00 76 1012.4
20260507005412 52 56 1.7 6.1 0.00 0.00 0.00 76 1012.4
20260507004417 52 51 1.7 7.8 0.00 0.00 0.00 75 1012.4
20260507003413 53 41 1.7 4.3 0.00 0.00 0.00 75 1012.4
20260507002858 53 55 2.6 7.0 0.00 0.00 0.00 74 1012.3
20260507001412 53 60 2.6 6.1 0.00 0.00 0.00 74 1012.4
20260507000410 53 41 1.7 7.0 0.00 0.00 0.00 73 1012.3
20260506235410 54 355 2.6 6.1 0.00 0.00 0.00 72 1012.1
20260506234410 54 49 2.6 7.0 0.00 0.00 0.00 72 1012.1
20260506233419 54 49 2.6 7.0 0.00 0.00 0.00 71 1012.0
20260506232415 54 5 2.6 7.0 0.00 0.00 0.00 71 1011.9
20260506231409 54 345 2.6 7.0 0.00 0.00 0.00 72 1011.9
20260506230410 54 355 3.5 7.8 0.00 0.00 0.00 72 1011.8
20260506225410 54 0 2.6 7.0 0.00 0.00 0.00 75 1011.8
20260506224410 54 50 2.6 7.8 0.00 0.00 0.00 76 1011.8
20260506223409 54 322 2.6 7.0 0.00 0.00 0.00 77 1011.8
20260506222410 54 5 1.7 7.8 0.00 0.00 0.00 77 1011.8
20260506221408 54 59 2.6 6.1 0.00 0.00 0.00 77 1011.7
20260506220407 54 350 1.7 6.1 0.00 0.00 0.00 77 1011.6
20260506215407 54 24 1.7 5.2 0.00 0.00 0.00 78 1011.5
20260506214411 54 57 0.9 4.3 0.00 0.00 0.00 78 1011.5
20260506213407 54 56 1.7 7.8 0.00 0.00 0.00 78 1011.5
20260506212408 54 38 1.7 6.1 0.00 0.00 0.00 78 1011.5
20260506211407 54 34 1.7 5.2 0.00 0.00 0.00 78 1011.4
20260506210407 54 348 1.7 5.2 0.00 0.00 0.00 78 1011.4
20260506205407 54 17 2.6 6.1 0.00 0.00 0.00 78 1011.4
20260506204846 54 5 2.6 6.1 0.00 0.00 0.00 78 1011.3
20260506203405 54 355 1.7 6.1 0.00 0.00 0.00 78 1011.2
20260506203322 54 0 1.7 7.0 0.00 0.00 0.00 78 1011.2
20260506201405 54 311 2.6 7.8 0.00 0.00 0.00 77 1011.1
20260506200405 54 350 2.6 6.1 0.00 0.00 0.00 77 1011.1
20260506195405 54 311 3.5 11.3 0.00 0.00 0.00 77 1011.0
20260506194404 55 331 3.5 7.0 0.00 0.00 0.00 77 1010.8
20260506193837 55 330 3.5 8.7 0.00 0.00 0.00 77 1010.8
20260506192839 55 320 3.5 8.7 0.00 0.00 0.00 77 1010.7
20260506192317 55 316 4.3 8.7 0.00 0.00 0.00 77 1010.7
20260506190404 55 333 4.3 9.6 0.00 0.00 0.00 77 1010.5
20260506185405 55 30 4.3 10.4 0.00 0.00 0.00 77 1010.5
20260506184405 55 335 4.3 9.6 0.00 0.00 0.00 78 1010.4
20260506183405 55 339 5.2 9.6 0.00 0.00 0.00 78 1010.3